|
NORAD ID: 3691 Int'l Code: 1969-013A
Perigee: 35,664.7 km
Apogee: 35,826.0 km
Inclination: 7.5 °
Period: 1,433.6 minutes
Semi major axis: 42116 km
Launch date: February 9, 1969
Source: United States (US)
Two Line Element Set (TLE):
1 03691U 69013A 13135.47240427 -.00000214 00000-0 10000-3 0 6451
2 03691 007.4627 312.7136 0019153 191.8255 168.0631 01.00444731149441
Source:
NASA's NSSDC Master Catalog entry for OPS 0757 (TACSAT)
|